Time,TemperatureF,DewpointF,PressureIn,WindDirection,WindDirectionDegrees,WindSpeedMPH,WindSpeedGustMPH,Humidity,HourlyPrecipIn,Conditions,Clouds,dailyrainin,SolarRadiationWatts/m^2,SoftwareType,DateUTC
2013-06-17 00:02:00,48.0,47.0,-100.00,NE,43,0.0,5.0,96,0.00,,,0.04,0.000000,,2013-06-17 04:02:00,
2013-06-17 00:23:00,47.0,46.0,-100.00,NW,320,2.0,5.0,98,0.00,,,0.03,0.000000,,2013-06-17 04:23:00,
2013-06-17 00:34:00,47.0,46.0,-100.00,NW,320,2.0,5.0,98,0.00,,,0.03,0.000000,,2013-06-17 04:34:00,
2013-06-17 00:43:00,47.0,46.0,-100.00,NW,320,2.0,5.0,98,0.00,,,0.03,0.000000,,2013-06-17 04:43:00,
2013-06-17 00:53:00,47.0,46.0,-100.00,NW,320,2.0,5.0,98,0.00,,,0.03,0.000000,,2013-06-17 04:53:00,
2013-06-17 01:02:00,47.0,46.0,-100.00,NW,320,2.0,5.0,98,0.00,,,0.03,0.000000,,2013-06-17 05:02:00,
2013-06-17 01:22:00,48.0,47.0,-100.00,WNW,296,2.0,5.0,98,0.00,,,0.03,0.000000,,2013-06-17 05:22:00,
2013-06-17 01:33:00,48.0,47.0,-100.00,WNW,296,2.0,5.0,98,0.00,,,0.03,0.000000,,2013-06-17 05:33:00,
2013-06-17 01:44:00,48.0,47.0,-100.00,WNW,296,2.0,5.0,98,0.00,,,0.03,0.000000,,2013-06-17 05:44:00,
2013-06-17 01:53:00,48.0,47.0,-100.00,WNW,296,2.0,5.0,98,0.00,,,0.03,0.000000,,2013-06-17 05:53:00,
2013-06-17 02:02:00,48.0,47.0,-100.00,WNW,296,2.0,5.0,98,0.00,,,0.03,0.000000,,2013-06-17 06:02:00,
2013-06-17 02:22:00,49.0,49.0,-100.00,NNW,347,5.0,9.0,99,0.00,,,0.02,0.000000,,2013-06-17 06:22:00,
2013-06-17 02:33:00,49.0,49.0,-100.00,NNW,347,5.0,9.0,99,0.00,,,0.02,0.000000,,2013-06-17 06:33:00,
2013-06-17 02:43:00,49.0,49.0,-100.00,NNW,347,5.0,9.0,99,0.00,,,0.02,0.000000,,2013-06-17 06:43:00,
2013-06-17 02:53:00,49.0,49.0,-100.00,NNW,347,5.0,9.0,99,0.00,,,0.02,0.000000,,2013-06-17 06:53:00,
2013-06-17 03:02:00,49.0,49.0,-100.00,NNW,347,5.0,9.0,99,0.00,,,0.02,0.000000,,2013-06-17 07:02:00,
2013-06-17 03:22:00,49.0,48.0,-100.00,North,3,6.0,11.0,98,0.00,,,0.02,0.000000,,2013-06-17 07:22:00,
2013-06-17 03:33:00,49.0,48.0,-100.00,North,3,6.0,11.0,98,0.00,,,0.02,0.000000,,2013-06-17 07:33:00,
2013-06-17 03:43:00,49.0,48.0,-100.00,North,3,6.0,11.0,98,0.00,,,0.02,0.000000,,2013-06-17 07:43:00,
2013-06-17 03:53:00,49.0,48.0,-100.00,North,3,6.0,11.0,98,0.00,,,0.02,0.000000,,2013-06-17 07:53:00,
2013-06-17 04:02:00,49.0,48.0,-100.00,North,3,6.0,11.0,98,0.00,,,0.02,0.000000,,2013-06-17 08:02:00,
2013-06-17 04:22:00,47.0,47.0,-100.00,North,10,6.0,10.0,99,0.00,,,0.02,0.000000,,2013-06-17 08:22:00,
2013-06-17 04:34:00,47.0,47.0,-100.00,North,10,6.0,10.0,99,0.00,,,0.02,0.000000,,2013-06-17 08:34:00,
2013-06-17 04:43:00,47.0,47.0,-100.00,North,10,6.0,10.0,99,0.00,,,0.02,0.000000,,2013-06-17 08:43:00,
2013-06-17 04:53:00,47.0,47.0,-100.00,North,10,6.0,10.0,99,0.00,,,0.02,0.000000,,2013-06-17 08:53:00,
2013-06-17 05:02:00,47.0,47.0,-100.00,North,10,6.0,10.0,99,0.00,,,0.02,0.000000,,2013-06-17 09:02:00,
2013-06-17 05:22:00,47.0,47.0,-100.00,North,10,4.0,8.0,99,0.00,,,0.02,0.000000,,2013-06-17 09:22:00,
2013-06-17 05:34:00,47.0,47.0,-100.00,North,10,4.0,8.0,99,0.00,,,0.02,0.000000,,2013-06-17 09:34:00,
2013-06-17 05:44:00,47.0,47.0,-100.00,North,10,4.0,8.0,99,0.00,,,0.02,0.000000,,2013-06-17 09:44:00,
2013-06-17 05:53:00,47.0,47.0,-100.00,North,10,4.0,8.0,99,0.00,,,0.02,0.000000,,2013-06-17 09:53:00,
2013-06-17 06:02:00,47.0,47.0,-100.00,North,10,4.0,8.0,99,0.00,,,0.02,0.000000,,2013-06-17 10:02:00,
2013-06-17 06:22:00,47.0,47.0,-100.00,North,359,3.0,7.0,99,0.00,,,0.02,2.000000,,2013-06-17 10:22:00,
2013-06-17 06:33:00,47.0,47.0,-100.00,North,359,3.0,7.0,99,0.00,,,0.02,2.000000,,2013-06-17 10:33:00,
2013-06-17 06:43:00,47.0,47.0,-100.00,North,359,3.0,7.0,99,0.00,,,0.02,2.000000,,2013-06-17 10:43:00,
2013-06-17 06:54:00,47.0,47.0,-100.00,North,359,3.0,7.0,99,0.00,,,0.02,2.000000,,2013-06-17 10:54:00,
2013-06-17 07:02:00,47.0,47.0,-100.00,North,359,3.0,7.0,99,0.00,,,0.02,2.000000,,2013-06-17 11:02:00,
2013-06-17 07:23:00,48.0,48.0,-100.00,NNE,21,5.0,8.0,99,0.00,,,0.02,37.000000,,2013-06-17 11:23:00,
2013-06-17 07:33:00,48.0,48.0,-100.00,NNE,21,5.0,8.0,99,0.00,,,0.02,37.000000,,2013-06-17 11:33:00,
2013-06-17 07:43:00,48.0,48.0,-100.00,NNE,21,5.0,8.0,99,0.00,,,0.02,37.000000,,2013-06-17 11:43:00,
2013-06-17 07:53:00,48.0,48.0,-100.00,NNE,21,5.0,8.0,99,0.00,,,0.02,37.000000,,2013-06-17 11:53:00,
2013-06-17 08:02:00,48.0,48.0,-100.00,NNE,21,5.0,8.0,99,0.00,,,0.02,37.000000,,2013-06-17 12:02:00,
2013-06-17 08:23:00,49.0,49.0,-100.00,North,11,4.0,7.0,99,0.00,,,0.02,65.000000,,2013-06-17 12:23:00,
2013-06-17 08:33:00,49.0,49.0,-100.00,North,11,4.0,7.0,99,0.00,,,0.02,65.000000,,2013-06-17 12:33:00,
2013-06-17 08:43:00,49.0,49.0,-100.00,North,11,4.0,7.0,99,0.00,,,0.02,65.000000,,2013-06-17 12:43:00,
2013-06-17 08:53:00,49.0,49.0,-100.00,North,11,4.0,7.0,99,0.00,,,0.02,65.000000,,2013-06-17 12:53:00,
2013-06-17 09:02:00,49.0,49.0,-100.00,North,11,4.0,7.0,99,0.00,,,0.02,65.000000,,2013-06-17 13:02:00,
2013-06-17 09:33:00,52.0,50.0,-100.00,NE,50,4.0,7.0,94,0.00,,,0.02,128.000000,,2013-06-17 13:33:00,
2013-06-17 09:43:00,52.0,50.0,-100.00,NE,50,4.0,7.0,94,0.00,,,0.02,128.000000,,2013-06-17 13:43:00,
2013-06-17 09:53:00,52.0,50.0,-100.00,NE,50,4.0,7.0,94,0.00,,,0.02,128.000000,,2013-06-17 13:53:00,
2013-06-17 10:02:00,52.0,50.0,-100.00,NE,50,4.0,7.0,94,0.00,,,0.02,128.000000,,2013-06-17 14:02:00,
2013-06-17 10:22:00,54.0,49.0,-100.00,ENE,62,4.0,8.0,84,0.00,,,0.02,224.000000,,2013-06-17 14:22:00,
2013-06-17 10:34:00,54.0,49.0,-100.00,ENE,62,4.0,8.0,84,0.00,,,0.02,224.000000,,2013-06-17 14:34:00,
2013-06-17 10:44:00,54.0,49.0,-100.00,ENE,62,4.0,8.0,84,0.00,,,0.02,224.000000,,2013-06-17 14:44:00,
2013-06-17 10:54:00,54.0,49.0,-100.00,ENE,62,4.0,8.0,84,0.00,,,0.02,224.000000,,2013-06-17 14:54:00,
2013-06-17 11:02:00,54.0,49.0,-100.00,ENE,62,4.0,8.0,84,0.00,,,0.02,224.000000,,2013-06-17 15:02:00,
2013-06-17 11:33:00,58.0,50.0,-100.00,NE,53,5.0,8.0,76,0.00,,,0.02,444.000000,,2013-06-17 15:33:00,
2013-06-17 11:43:00,58.0,50.0,-100.00,NE,53,5.0,8.0,76,0.00,,,0.02,444.000000,,2013-06-17 15:43:00,
2013-06-17 11:53:00,58.0,50.0,-100.00,NE,53,5.0,8.0,76,0.00,,,0.02,444.000000,,2013-06-17 15:53:00,
2013-06-17 12:02:00,58.0,50.0,-100.00,NE,53,5.0,8.0,76,0.00,,,0.02,444.000000,,2013-06-17 16:02:00,
2013-06-17 12:33:00,58.0,49.0,-100.00,NNE,27,5.0,10.0,72,0.00,,,0.02,463.000000,,2013-06-17 16:33:00,
2013-06-17 12:43:00,58.0,49.0,-100.00,NNE,27,5.0,10.0,72,0.00,,,0.02,463.000000,,2013-06-17 16:43:00,
2013-06-17 12:54:00,58.0,49.0,-100.00,NNE,27,5.0,10.0,72,0.00,,,0.02,463.000000,,2013-06-17 16:54:00,
2013-06-17 13:02:00,58.0,49.0,-100.00,NNE,27,5.0,10.0,72,0.00,,,0.02,463.000000,,2013-06-17 17:02:00,
2013-06-17 13:33:00,59.0,48.0,-100.00,NE,42,5.0,8.0,68,0.00,,,0.02,261.000000,,2013-06-17 17:33:00,
2013-06-17 13:43:00,59.0,48.0,-100.00,NE,42,5.0,8.0,68,0.00,,,0.02,261.000000,,2013-06-17 17:43:00,
2013-06-17 13:52:00,59.0,48.0,-100.00,NE,42,5.0,8.0,68,0.00,,,0.02,261.000000,,2013-06-17 17:52:00,
2013-06-17 14:02:00,59.0,48.0,-100.00,NE,42,5.0,8.0,68,0.00,,,0.02,261.000000,,2013-06-17 18:02:00,
2013-06-17 14:23:00,62.0,49.0,-100.00,ENE,70,4.0,8.0,63,0.00,,,0.02,426.000000,,2013-06-17 18:23:00,
2013-06-17 14:33:00,62.0,49.0,-100.00,ENE,70,4.0,8.0,63,0.00,,,0.02,426.000000,,2013-06-17 18:33:00,
2013-06-17 14:43:00,62.0,49.0,-100.00,ENE,70,4.0,8.0,63,0.00,,,0.02,426.000000,,2013-06-17 18:43:00,
2013-06-17 14:53:00,62.0,49.0,-100.00,ENE,70,4.0,8.0,63,0.00,,,0.02,426.000000,,2013-06-17 18:53:00,
2013-06-17 15:02:00,62.0,49.0,-100.00,ENE,70,4.0,8.0,63,0.00,,,0.02,426.000000,,2013-06-17 19:02:00,
2013-06-17 15:22:00,62.0,47.0,-100.00,North,0,6.0,11.0,57,0.00,,,0.02,669.000000,,2013-06-17 19:22:00,
2013-06-17 15:33:00,62.0,47.0,-100.00,North,0,6.0,11.0,57,0.00,,,0.02,669.000000,,2013-06-17 19:33:00,
2013-06-17 15:43:00,62.0,47.0,-100.00,North,0,6.0,11.0,57,0.00,,,0.02,669.000000,,2013-06-17 19:43:00,
2013-06-17 15:54:00,62.0,47.0,-100.00,North,0,6.0,11.0,57,0.00,,,0.02,669.000000,,2013-06-17 19:54:00,
2013-06-17 16:02:00,62.0,47.0,-100.00,North,0,6.0,11.0,57,0.00,,,0.02,669.000000,,2013-06-17 20:02:00,
2013-06-17 16:34:00,64.0,49.0,-100.00,NNE,23,7.0,12.0,58,0.00,,,0.02,723.000000,,2013-06-17 20:34:00,
2013-06-17 16:43:00,64.0,49.0,-100.00,NNE,23,7.0,12.0,58,0.00,,,0.02,723.000000,,2013-06-17 20:43:00,
2013-06-17 16:52:00,64.0,49.0,-100.00,NNE,23,7.0,12.0,58,0.00,,,0.02,723.000000,,2013-06-17 20:52:00,
2013-06-17 17:01:00,64.0,49.0,-100.00,NNE,23,7.0,12.0,58,0.00,,,0.02,723.000000,,2013-06-17 21:01:00,
2013-06-17 18:53:00,60.0,46.0,-100.00,NNE,18,8.0,13.0,60,0.00,,,0.02,48.000000,,2013-06-17 22:53:00,
2013-06-17 19:02:00,60.0,46.0,-100.00,NNE,18,8.0,13.0,60,0.00,,,0.02,48.000000,,2013-06-17 23:02:00,
2013-06-17 19:22:00,58.0,45.0,-100.00,NNE,17,7.0,12.0,62,0.00,,,0.02,365.000000,,2013-06-17 23:22:00,
2013-06-17 19:33:00,58.0,45.0,-100.00,NNE,17,7.0,12.0,62,0.00,,,0.02,365.000000,,2013-06-17 23:33:00,
2013-06-17 19:43:00,58.0,45.0,-100.00,NNE,17,7.0,12.0,62,0.00,,,0.02,365.000000,,2013-06-17 23:43:00,
2013-06-17 19:53:00,58.0,45.0,-100.00,NNE,17,7.0,12.0,62,0.00,,,0.02,365.000000,,2013-06-17 23:53:00,
2013-06-17 20:01:00,58.0,45.0,-100.00,NNE,17,7.0,12.0,62,0.00,,,0.02,365.000000,,2013-06-18 00:01:00,
2013-06-17 20:33:00,54.0,43.0,-100.00,NNE,22,9.0,14.0,67,0.00,,,0.02,201.000000,,2013-06-18 00:33:00,
2013-06-17 20:43:00,54.0,43.0,-100.00,NNE,22,9.0,14.0,67,0.00,,,0.02,201.000000,,2013-06-18 00:43:00,
2013-06-17 20:52:00,54.0,43.0,-100.00,NNE,22,9.0,14.0,67,0.00,,,0.02,201.000000,,2013-06-18 00:52:00,
2013-06-17 21:01:00,54.0,43.0,-100.00,NNE,22,9.0,14.0,67,0.00,,,0.02,201.000000,,2013-06-18 01:01:00,
2013-06-17 21:23:00,51.0,41.0,-100.00,NNE,21,7.0,15.0,69,0.00,,,0.02,143.000000,,2013-06-18 01:23:00,
2013-06-17 21:34:00,51.0,41.0,-100.00,NNE,21,7.0,15.0,69,0.00,,,0.02,143.000000,,2013-06-18 01:34:00,
2013-06-17 21:44:00,51.0,41.0,-100.00,NNE,21,7.0,15.0,69,0.00,,,0.02,143.000000,,2013-06-18 01:44:00,
2013-06-17 21:53:00,51.0,41.0,-100.00,NNE,21,7.0,15.0,69,0.00,,,0.02,143.000000,,2013-06-18 01:53:00,
2013-06-17 22:02:00,51.0,41.0,-100.00,NNE,21,7.0,15.0,69,0.00,,,0.02,143.000000,,2013-06-18 02:02:00,
2013-06-17 22:34:00,48.0,43.0,-100.00,NNE,14,7.0,12.0,82,0.00,,,0.00,6.000000,,2013-06-18 02:34:00,
2013-06-17 22:43:00,48.0,43.0,-100.00,NNE,14,7.0,12.0,82,0.00,,,0.00,6.000000,,2013-06-18 02:43:00,
2013-06-17 22:53:00,48.0,43.0,-100.00,NNE,14,7.0,12.0,82,0.00,,,0.00,6.000000,,2013-06-18 02:53:00,
2013-06-17 23:02:00,48.0,43.0,-100.00,NNE,14,7.0,12.0,82,0.00,,,0.00,6.000000,,2013-06-18 03:02:00,
2013-06-17 23:34:00,47.0,42.0,-100.00,North,352,4.0,11.0,84,0.00,,,0.00,0.000000,,2013-06-18 03:34:00,
2013-06-17 23:43:00,47.0,42.0,-100.00,North,352,4.0,11.0,84,0.00,,,0.00,0.000000,,2013-06-18 03:43:00,
2013-06-17 23:53:00,47.0,42.0,-100.00,North,352,4.0,11.0,84,0.00,,,0.00,0.000000,,2013-06-18 03:53:00,